<?xml version="1.0" encoding="utf-8"?>
<gpx xmlns:xsi="http://www.w3.org/2001/XMLSchema-instance" xmlns:xsd="http://www.w3.org/2001/XMLSchema" version="1.1" creator="Shapelink.com" xmlns="http://www.topografix.com/GPX/1/1" xmlns:gpxtpx="http://www.garmin.com/xmlschemas/TrackPointExtension/v1">
  <metadata>
    <name>Promenad 2.71 km, 2013-09-22</name>
    <desc></desc>
    <author><name>Mattias Eriksson</name></author> 
    <time>1970-01-01T01:00:00Z</time>
  </metadata>
  <trk>
    <name>Promenad 2.71 km, 2013-09-22</name>
    <trkseg>
      <trkpt lat="56.815724" lon="13.935419">
        <ele>149.571</ele>
        <time>1970-01-01T01:00:00Z</time>
      </trkpt>
      <trkpt lat="56.815818" lon="13.935488">
        <ele>149.625</ele>
        <time>1970-01-01T01:00:00Z</time>
      </trkpt>
      <trkpt lat="56.815887" lon="13.93557">
        <ele>149.667</ele>
        <time>1970-01-01T01:00:00Z</time>
      </trkpt>
      <trkpt lat="56.815951" lon="13.935668">
        <ele>149.8</ele>
        <time>1970-01-01T01:00:00Z</time>
      </trkpt>
      <trkpt lat="56.816019" lon="13.935758">
        <ele>149.909</ele>
        <time>1970-01-01T01:00:00Z</time>
      </trkpt>
      <trkpt lat="56.816097" lon="13.935819">
        <ele>150.091</ele>
        <time>1970-01-01T01:00:00Z</time>
      </trkpt>
      <trkpt lat="56.816166" lon="13.93593">
        <ele>150.273</ele>
        <time>1970-01-01T01:00:00Z</time>
      </trkpt>
      <trkpt lat="56.816251" lon="13.935994">
        <ele>150.455</ele>
        <time>1970-01-01T01:00:00Z</time>
      </trkpt>
      <trkpt lat="56.816325" lon="13.936058">
        <ele>150.545</ele>
        <time>1970-01-01T01:00:00Z</time>
      </trkpt>
      <trkpt lat="56.816407" lon="13.936077">
        <ele>150.636</ele>
        <time>1970-01-01T01:00:00Z</time>
      </trkpt>
      <trkpt lat="56.816486" lon="13.936013">
        <ele>150.636</ele>
        <time>1970-01-01T01:00:00Z</time>
      </trkpt>
      <trkpt lat="56.816548" lon="13.935895">
        <ele>150.636</ele>
        <time>1970-01-01T01:00:00Z</time>
      </trkpt>
      <trkpt lat="56.816618" lon="13.935777">
        <ele>150.727</ele>
        <time>1970-01-01T01:00:00Z</time>
      </trkpt>
      <trkpt lat="56.816661" lon="13.935645">
        <ele>150.818</ele>
        <time>1970-01-01T01:00:00Z</time>
      </trkpt>
      <trkpt lat="56.816719" lon="13.935532">
        <ele>150.818</ele>
        <time>1970-01-01T01:00:00Z</time>
      </trkpt>
      <trkpt lat="56.8168" lon="13.935474">
        <ele>150.818</ele>
        <time>1970-01-01T01:00:00Z</time>
      </trkpt>
      <trkpt lat="56.81689" lon="13.935428">
        <ele>150.818</ele>
        <time>1970-01-01T01:00:00Z</time>
      </trkpt>
      <trkpt lat="56.816963" lon="13.935509">
        <ele>150.818</ele>
        <time>1970-01-01T01:00:00Z</time>
      </trkpt>
      <trkpt lat="56.817036" lon="13.935607">
        <ele>150.818</ele>
        <time>1970-01-01T01:00:00Z</time>
      </trkpt>
      <trkpt lat="56.817091" lon="13.935724">
        <ele>150.818</ele>
        <time>1970-01-01T01:00:00Z</time>
      </trkpt>
      <trkpt lat="56.817142" lon="13.935849">
        <ele>150.818</ele>
        <time>1970-01-01T01:00:00Z</time>
      </trkpt>
      <trkpt lat="56.817229" lon="13.935934">
        <ele>151</ele>
        <time>1970-01-01T01:00:00Z</time>
      </trkpt>
      <trkpt lat="56.817315" lon="13.935996">
        <ele>151.182</ele>
        <time>1970-01-01T01:00:00Z</time>
      </trkpt>
      <trkpt lat="56.817374" lon="13.9361">
        <ele>151.273</ele>
        <time>1970-01-01T01:00:00Z</time>
      </trkpt>
      <trkpt lat="56.817436" lon="13.936207">
        <ele>151.364</ele>
        <time>1970-01-01T01:00:00Z</time>
      </trkpt>
      <trkpt lat="56.817524" lon="13.936271">
        <ele>151.455</ele>
        <time>1970-01-01T01:00:00Z</time>
      </trkpt>
      <trkpt lat="56.817599" lon="13.93634">
        <ele>151.545</ele>
        <time>1970-01-01T01:00:00Z</time>
      </trkpt>
      <trkpt lat="56.817674" lon="13.936404">
        <ele>151.727</ele>
        <time>1970-01-01T01:00:00Z</time>
      </trkpt>
      <trkpt lat="56.817751" lon="13.93646">
        <ele>151.909</ele>
        <time>1970-01-01T01:00:00Z</time>
      </trkpt>
      <trkpt lat="56.817823" lon="13.93657">
        <ele>151.909</ele>
        <time>1970-01-01T01:00:00Z</time>
      </trkpt>
      <trkpt lat="56.817893" lon="13.936682">
        <ele>151.909</ele>
        <time>1970-01-01T01:00:00Z</time>
      </trkpt>
      <trkpt lat="56.817947" lon="13.936813">
        <ele>151.909</ele>
        <time>1970-01-01T01:00:00Z</time>
      </trkpt>
      <trkpt lat="56.817994" lon="13.936968">
        <ele>151.818</ele>
        <time>1970-01-01T01:00:00Z</time>
      </trkpt>
      <trkpt lat="56.818045" lon="13.937105">
        <ele>151.727</ele>
        <time>1970-01-01T01:00:00Z</time>
      </trkpt>
      <trkpt lat="56.818097" lon="13.937224">
        <ele>151.636</ele>
        <time>1970-01-01T01:00:00Z</time>
      </trkpt>
      <trkpt lat="56.818154" lon="13.937334">
        <ele>151.545</ele>
        <time>1970-01-01T01:00:00Z</time>
      </trkpt>
      <trkpt lat="56.81821" lon="13.937453">
        <ele>151.455</ele>
        <time>1970-01-01T01:00:00Z</time>
      </trkpt>
      <trkpt lat="56.818263" lon="13.937578">
        <ele>151.364</ele>
        <time>1970-01-01T01:00:00Z</time>
      </trkpt>
      <trkpt lat="56.818327" lon="13.937675">
        <ele>151.182</ele>
        <time>1970-01-01T01:00:00Z</time>
      </trkpt>
      <trkpt lat="56.8184" lon="13.937786">
        <ele>151.182</ele>
        <time>1970-01-01T01:00:00Z</time>
      </trkpt>
      <trkpt lat="56.81847" lon="13.937867">
        <ele>151.273</ele>
        <time>1970-01-01T01:00:00Z</time>
      </trkpt>
      <trkpt lat="56.818559" lon="13.937895">
        <ele>151.364</ele>
        <time>1970-01-01T01:00:00Z</time>
      </trkpt>
      <trkpt lat="56.818644" lon="13.937908">
        <ele>151.455</ele>
        <time>1970-01-01T01:00:00Z</time>
      </trkpt>
      <trkpt lat="56.818732" lon="13.937916">
        <ele>151.545</ele>
        <time>1970-01-01T01:00:00Z</time>
      </trkpt>
      <trkpt lat="56.818823" lon="13.937937">
        <ele>151.636</ele>
        <time>1970-01-01T01:00:00Z</time>
      </trkpt>
      <trkpt lat="56.818907" lon="13.93798">
        <ele>151.727</ele>
        <time>1970-01-01T01:00:00Z</time>
      </trkpt>
      <trkpt lat="56.818965" lon="13.938088">
        <ele>151.818</ele>
        <time>1970-01-01T01:00:00Z</time>
      </trkpt>
      <trkpt lat="56.819023" lon="13.938223">
        <ele>151.727</ele>
        <time>1970-01-01T01:00:00Z</time>
      </trkpt>
      <trkpt lat="56.819082" lon="13.93835">
        <ele>151.636</ele>
        <time>1970-01-01T01:00:00Z</time>
      </trkpt>
      <trkpt lat="56.819142" lon="13.938475">
        <ele>151.545</ele>
        <time>1970-01-01T01:00:00Z</time>
      </trkpt>
      <trkpt lat="56.819198" lon="13.938592">
        <ele>151.273</ele>
        <time>1970-01-01T01:00:00Z</time>
      </trkpt>
      <trkpt lat="56.819244" lon="13.938722">
        <ele>151.091</ele>
        <time>1970-01-01T01:00:00Z</time>
      </trkpt>
      <trkpt lat="56.819308" lon="13.938835">
        <ele>151.182</ele>
        <time>1970-01-01T01:00:00Z</time>
      </trkpt>
      <trkpt lat="56.81937" lon="13.938954">
        <ele>151.273</ele>
        <time>1970-01-01T01:00:00Z</time>
      </trkpt>
      <trkpt lat="56.819445" lon="13.939057">
        <ele>151.091</ele>
        <time>1970-01-01T01:00:00Z</time>
      </trkpt>
      <trkpt lat="56.819506" lon="13.939166">
        <ele>150.909</ele>
        <time>1970-01-01T01:00:00Z</time>
      </trkpt>
      <trkpt lat="56.81957" lon="13.939273">
        <ele>150.727</ele>
        <time>1970-01-01T01:00:00Z</time>
      </trkpt>
      <trkpt lat="56.819624" lon="13.939414">
        <ele>150.545</ele>
        <time>1970-01-01T01:00:00Z</time>
      </trkpt>
      <trkpt lat="56.819681" lon="13.939527">
        <ele>150.545</ele>
        <time>1970-01-01T01:00:00Z</time>
      </trkpt>
      <trkpt lat="56.819745" lon="13.939643">
        <ele>150.545</ele>
        <time>1970-01-01T01:00:00Z</time>
      </trkpt>
      <trkpt lat="56.819814" lon="13.939757">
        <ele>150.545</ele>
        <time>1970-01-01T01:00:00Z</time>
      </trkpt>
      <trkpt lat="56.819892" lon="13.939837">
        <ele>150.545</ele>
        <time>1970-01-01T01:00:00Z</time>
      </trkpt>
      <trkpt lat="56.819972" lon="13.939926">
        <ele>150.545</ele>
        <time>1970-01-01T01:00:00Z</time>
      </trkpt>
      <trkpt lat="56.820045" lon="13.940026">
        <ele>150.273</ele>
        <time>1970-01-01T01:00:00Z</time>
      </trkpt>
      <trkpt lat="56.82012" lon="13.9401">
        <ele>150</ele>
        <time>1970-01-01T01:00:00Z</time>
      </trkpt>
      <trkpt lat="56.820202" lon="13.940162">
        <ele>150</ele>
        <time>1970-01-01T01:00:00Z</time>
      </trkpt>
      <trkpt lat="56.820297" lon="13.940201">
        <ele>150</ele>
        <time>1970-01-01T01:00:00Z</time>
      </trkpt>
      <trkpt lat="56.820382" lon="13.940216">
        <ele>150</ele>
        <time>1970-01-01T01:00:00Z</time>
      </trkpt>
      <trkpt lat="56.820479" lon="13.940239">
        <ele>150</ele>
        <time>1970-01-01T01:00:00Z</time>
      </trkpt>
      <trkpt lat="56.820566" lon="13.940271">
        <ele>150</ele>
        <time>1970-01-01T01:00:00Z</time>
      </trkpt>
      <trkpt lat="56.820646" lon="13.940303">
        <ele>150</ele>
        <time>1970-01-01T01:00:00Z</time>
      </trkpt>
      <trkpt lat="56.820735" lon="13.940345">
        <ele>150</ele>
        <time>1970-01-01T01:00:00Z</time>
      </trkpt>
      <trkpt lat="56.82082" lon="13.940305">
        <ele>150</ele>
        <time>1970-01-01T01:00:00Z</time>
      </trkpt>
      <trkpt lat="56.820903" lon="13.940285">
        <ele>149.545</ele>
        <time>1970-01-01T01:00:00Z</time>
      </trkpt>
      <trkpt lat="56.820993" lon="13.940237">
        <ele>149.091</ele>
        <time>1970-01-01T01:00:00Z</time>
      </trkpt>
      <trkpt lat="56.821077" lon="13.940153">
        <ele>148.636</ele>
        <time>1970-01-01T01:00:00Z</time>
      </trkpt>
      <trkpt lat="56.821152" lon="13.940056">
        <ele>148.182</ele>
        <time>1970-01-01T01:00:00Z</time>
      </trkpt>
      <trkpt lat="56.821233" lon="13.939978">
        <ele>147.818</ele>
        <time>1970-01-01T01:00:00Z</time>
      </trkpt>
      <trkpt lat="56.821309" lon="13.939878">
        <ele>147.455</ele>
        <time>1970-01-01T01:00:00Z</time>
      </trkpt>
      <trkpt lat="56.821374" lon="13.939751">
        <ele>147.091</ele>
        <time>1970-01-01T01:00:00Z</time>
      </trkpt>
      <trkpt lat="56.821458" lon="13.939671">
        <ele>146.727</ele>
        <time>1970-01-01T01:00:00Z</time>
      </trkpt>
      <trkpt lat="56.821546" lon="13.939627">
        <ele>146.364</ele>
        <time>1970-01-01T01:00:00Z</time>
      </trkpt>
      <trkpt lat="56.821629" lon="13.939569">
        <ele>146</ele>
        <time>1970-01-01T01:00:00Z</time>
      </trkpt>
      <trkpt lat="56.82171" lon="13.939513">
        <ele>145.636</ele>
        <time>1970-01-01T01:00:00Z</time>
      </trkpt>
      <trkpt lat="56.821778" lon="13.9394">
        <ele>145.727</ele>
        <time>1970-01-01T01:00:00Z</time>
      </trkpt>
      <trkpt lat="56.821825" lon="13.939266">
        <ele>145.545</ele>
        <time>1970-01-01T01:00:00Z</time>
      </trkpt>
      <trkpt lat="56.821866" lon="13.939134">
        <ele>145.364</ele>
        <time>1970-01-01T01:00:00Z</time>
      </trkpt>
      <trkpt lat="56.821933" lon="13.939014">
        <ele>145.182</ele>
        <time>1970-01-01T01:00:00Z</time>
      </trkpt>
      <trkpt lat="56.821998" lon="13.938897">
        <ele>144.909</ele>
        <time>1970-01-01T01:00:00Z</time>
      </trkpt>
      <trkpt lat="56.822093" lon="13.938898">
        <ele>144.636</ele>
        <time>1970-01-01T01:00:00Z</time>
      </trkpt>
      <trkpt lat="56.822162" lon="13.938987">
        <ele>144.455</ele>
        <time>1970-01-01T01:00:00Z</time>
      </trkpt>
      <trkpt lat="56.822198" lon="13.93912">
        <ele>144.273</ele>
        <time>1970-01-01T01:00:00Z</time>
      </trkpt>
      <trkpt lat="56.822255" lon="13.939259">
        <ele>144.091</ele>
        <time>1970-01-01T01:00:00Z</time>
      </trkpt>
      <trkpt lat="56.822313" lon="13.939391">
        <ele>143.909</ele>
        <time>1970-01-01T01:00:00Z</time>
      </trkpt>
      <trkpt lat="56.822357" lon="13.939522">
        <ele>143.727</ele>
        <time>1970-01-01T01:00:00Z</time>
      </trkpt>
      <trkpt lat="56.822412" lon="13.939632">
        <ele>143.545</ele>
        <time>1970-01-01T01:00:00Z</time>
      </trkpt>
      <trkpt lat="56.822463" lon="13.93975">
        <ele>143.636</ele>
        <time>1970-01-01T01:00:00Z</time>
      </trkpt>
      <trkpt lat="56.822528" lon="13.939869">
        <ele>143.636</ele>
        <time>1970-01-01T01:00:00Z</time>
      </trkpt>
      <trkpt lat="56.822588" lon="13.939994">
        <ele>143.636</ele>
        <time>1970-01-01T01:00:00Z</time>
      </trkpt>
      <trkpt lat="56.822637" lon="13.940115">
        <ele>143.636</ele>
        <time>1970-01-01T01:00:00Z</time>
      </trkpt>
      <trkpt lat="56.822689" lon="13.940253">
        <ele>143.455</ele>
        <time>1970-01-01T01:00:00Z</time>
      </trkpt>
      <trkpt lat="56.822749" lon="13.940362">
        <ele>143.182</ele>
        <time>1970-01-01T01:00:00Z</time>
      </trkpt>
      <trkpt lat="56.822817" lon="13.940481">
        <ele>142.909</ele>
        <time>1970-01-01T01:00:00Z</time>
      </trkpt>
      <trkpt lat="56.822872" lon="13.940591">
        <ele>142.636</ele>
        <time>1970-01-01T01:00:00Z</time>
      </trkpt>
      <trkpt lat="56.822938" lon="13.940708">
        <ele>142.364</ele>
        <time>1970-01-01T01:00:00Z</time>
      </trkpt>
      <trkpt lat="56.82299" lon="13.940825">
        <ele>142.091</ele>
        <time>1970-01-01T01:00:00Z</time>
      </trkpt>
      <trkpt lat="56.82307" lon="13.940744">
        <ele>141.818</ele>
        <time>1970-01-01T01:00:00Z</time>
      </trkpt>
      <trkpt lat="56.823134" lon="13.940636">
        <ele>141.545</ele>
        <time>1970-01-01T01:00:00Z</time>
      </trkpt>
      <trkpt lat="56.823203" lon="13.940509">
        <ele>141.364</ele>
        <time>1970-01-01T01:00:00Z</time>
      </trkpt>
      <trkpt lat="56.823276" lon="13.940419">
        <ele>141.182</ele>
        <time>1970-01-01T01:00:00Z</time>
      </trkpt>
      <trkpt lat="56.823351" lon="13.940359">
        <ele>141</ele>
        <time>1970-01-01T01:00:00Z</time>
      </trkpt>
      <trkpt lat="56.823435" lon="13.94032">
        <ele>141</ele>
        <time>1970-01-01T01:00:00Z</time>
      </trkpt>
      <trkpt lat="56.823508" lon="13.940245">
        <ele>141</ele>
        <time>1970-01-01T01:00:00Z</time>
      </trkpt>
      <trkpt lat="56.823582" lon="13.940152">
        <ele>140.727</ele>
        <time>1970-01-01T01:00:00Z</time>
      </trkpt>
      <trkpt lat="56.823641" lon="13.940043">
        <ele>140.455</ele>
        <time>1970-01-01T01:00:00Z</time>
      </trkpt>
      <trkpt lat="56.823694" lon="13.939928">
        <ele>140.182</ele>
        <time>1970-01-01T01:00:00Z</time>
      </trkpt>
      <trkpt lat="56.823736" lon="13.939785">
        <ele>139.909</ele>
        <time>1970-01-01T01:00:00Z</time>
      </trkpt>
      <trkpt lat="56.823758" lon="13.939632">
        <ele>139.636</ele>
        <time>1970-01-01T01:00:00Z</time>
      </trkpt>
      <trkpt lat="56.82379" lon="13.939483">
        <ele>139.364</ele>
        <time>1970-01-01T01:00:00Z</time>
      </trkpt>
      <trkpt lat="56.823846" lon="13.939362">
        <ele>139.091</ele>
        <time>1970-01-01T01:00:00Z</time>
      </trkpt>
      <trkpt lat="56.823915" lon="13.939249">
        <ele>138.818</ele>
        <time>1970-01-01T01:00:00Z</time>
      </trkpt>
      <trkpt lat="56.823987" lon="13.93915">
        <ele>138.545</ele>
        <time>1970-01-01T01:00:00Z</time>
      </trkpt>
      <trkpt lat="56.824058" lon="13.939065">
        <ele>138.273</ele>
        <time>1970-01-01T01:00:00Z</time>
      </trkpt>
      <trkpt lat="56.824131" lon="13.938957">
        <ele>138</ele>
        <time>1970-01-01T01:00:00Z</time>
      </trkpt>
      <trkpt lat="56.824191" lon="13.938824">
        <ele>138</ele>
        <time>1970-01-01T01:00:00Z</time>
      </trkpt>
      <trkpt lat="56.824249" lon="13.938705">
        <ele>138</ele>
        <time>1970-01-01T01:00:00Z</time>
      </trkpt>
      <trkpt lat="56.824311" lon="13.938595">
        <ele>137.909</ele>
        <time>1970-01-01T01:00:00Z</time>
      </trkpt>
      <trkpt lat="56.824362" lon="13.938456">
        <ele>137.727</ele>
        <time>1970-01-01T01:00:00Z</time>
      </trkpt>
      <trkpt lat="56.82442" lon="13.938319">
        <ele>137.545</ele>
        <time>1970-01-01T01:00:00Z</time>
      </trkpt>
      <trkpt lat="56.824477" lon="13.938206">
        <ele>137.364</ele>
        <time>1970-01-01T01:00:00Z</time>
      </trkpt>
      <trkpt lat="56.824529" lon="13.938076">
        <ele>137.182</ele>
        <time>1970-01-01T01:00:00Z</time>
      </trkpt>
      <trkpt lat="56.824581" lon="13.937943">
        <ele>137</ele>
        <time>1970-01-01T01:00:00Z</time>
      </trkpt>
      <trkpt lat="56.824628" lon="13.93779">
        <ele>136.818</ele>
        <time>1970-01-01T01:00:00Z</time>
      </trkpt>
      <trkpt lat="56.824641" lon="13.937633">
        <ele>136.636</ele>
        <time>1970-01-01T01:00:00Z</time>
      </trkpt>
      <trkpt lat="56.824691" lon="13.937512">
        <ele>136.455</ele>
        <time>1970-01-01T01:00:00Z</time>
      </trkpt>
      <trkpt lat="56.824755" lon="13.937396">
        <ele>136.273</ele>
        <time>1970-01-01T01:00:00Z</time>
      </trkpt>
      <trkpt lat="56.824824" lon="13.93728">
        <ele>136.091</ele>
        <time>1970-01-01T01:00:00Z</time>
      </trkpt>
      <trkpt lat="56.8249" lon="13.937216">
        <ele>136</ele>
        <time>1970-01-01T01:00:00Z</time>
      </trkpt>
      <trkpt lat="56.824981" lon="13.9372">
        <ele>136</ele>
        <time>1970-01-01T01:00:00Z</time>
      </trkpt>
      <trkpt lat="56.825059" lon="13.937117">
        <ele>136</ele>
        <time>1970-01-01T01:00:00Z</time>
      </trkpt>
      <trkpt lat="56.825128" lon="13.937014">
        <ele>136.091</ele>
        <time>1970-01-01T01:00:00Z</time>
      </trkpt>
      <trkpt lat="56.825203" lon="13.936902">
        <ele>136.182</ele>
        <time>1970-01-01T01:00:00Z</time>
      </trkpt>
      <trkpt lat="56.825279" lon="13.936799">
        <ele>136.182</ele>
        <time>1970-01-01T01:00:00Z</time>
      </trkpt>
      <trkpt lat="56.825357" lon="13.936699">
        <ele>136.182</ele>
        <time>1970-01-01T01:00:00Z</time>
      </trkpt>
      <trkpt lat="56.825424" lon="13.936613">
        <ele>136.182</ele>
        <time>1970-01-01T01:00:00Z</time>
      </trkpt>
      <trkpt lat="56.825487" lon="13.936512">
        <ele>136.182</ele>
        <time>1970-01-01T01:00:00Z</time>
      </trkpt>
      <trkpt lat="56.825555" lon="13.936417">
        <ele>136.182</ele>
        <time>1970-01-01T01:00:00Z</time>
      </trkpt>
      <trkpt lat="56.825618" lon="13.936324">
        <ele>136.182</ele>
        <time>1970-01-01T01:00:00Z</time>
      </trkpt>
      <trkpt lat="56.825697" lon="13.936236">
        <ele>136.182</ele>
        <time>1970-01-01T01:00:00Z</time>
      </trkpt>
      <trkpt lat="56.825777" lon="13.936157">
        <ele>136.182</ele>
        <time>1970-01-01T01:00:00Z</time>
      </trkpt>
      <trkpt lat="56.825857" lon="13.936059">
        <ele>136.182</ele>
        <time>1970-01-01T01:00:00Z</time>
      </trkpt>
      <trkpt lat="56.825934" lon="13.93596">
        <ele>135.909</ele>
        <time>1970-01-01T01:00:00Z</time>
      </trkpt>
      <trkpt lat="56.825999" lon="13.935861">
        <ele>135.636</ele>
        <time>1970-01-01T01:00:00Z</time>
      </trkpt>
      <trkpt lat="56.826064" lon="13.935762">
        <ele>135.455</ele>
        <time>1970-01-01T01:00:00Z</time>
      </trkpt>
      <trkpt lat="56.826131" lon="13.935658">
        <ele>135.273</ele>
        <time>1970-01-01T01:00:00Z</time>
      </trkpt>
      <trkpt lat="56.826207" lon="13.93556">
        <ele>135.091</ele>
        <time>1970-01-01T01:00:00Z</time>
      </trkpt>
      <trkpt lat="56.826278" lon="13.935459">
        <ele>134.909</ele>
        <time>1970-01-01T01:00:00Z</time>
      </trkpt>
      <trkpt lat="56.826344" lon="13.935373">
        <ele>134.727</ele>
        <time>1970-01-01T01:00:00Z</time>
      </trkpt>
      <trkpt lat="56.82641" lon="13.935287">
        <ele>134.545</ele>
        <time>1970-01-01T01:00:00Z</time>
      </trkpt>
      <trkpt lat="56.826481" lon="13.935197">
        <ele>134.364</ele>
        <time>1970-01-01T01:00:00Z</time>
      </trkpt>
      <trkpt lat="56.826516" lon="13.93503">
        <ele>134.182</ele>
        <time>1970-01-01T01:00:00Z</time>
      </trkpt>
      <trkpt lat="56.826553" lon="13.934886">
        <ele>134</ele>
        <time>1970-01-01T01:00:00Z</time>
      </trkpt>
      <trkpt lat="56.826624" lon="13.934811">
        <ele>134.091</ele>
        <time>1970-01-01T01:00:00Z</time>
      </trkpt>
      <trkpt lat="56.82671" lon="13.934787">
        <ele>134.182</ele>
        <time>1970-01-01T01:00:00Z</time>
      </trkpt>
      <trkpt lat="56.826793" lon="13.934782">
        <ele>134.364</ele>
        <time>1970-01-01T01:00:00Z</time>
      </trkpt>
      <trkpt lat="56.826882" lon="13.934776">
        <ele>134.545</ele>
        <time>1970-01-01T01:00:00Z</time>
      </trkpt>
      <trkpt lat="56.826962" lon="13.934735">
        <ele>134.727</ele>
        <time>1970-01-01T01:00:00Z</time>
      </trkpt>
      <trkpt lat="56.827038" lon="13.934657">
        <ele>134.909</ele>
        <time>1970-01-01T01:00:00Z</time>
      </trkpt>
      <trkpt lat="56.827117" lon="13.934562">
        <ele>135.091</ele>
        <time>1970-01-01T01:00:00Z</time>
      </trkpt>
      <trkpt lat="56.82719" lon="13.934462">
        <ele>135.273</ele>
        <time>1970-01-01T01:00:00Z</time>
      </trkpt>
      <trkpt lat="56.82727" lon="13.93437">
        <ele>135.455</ele>
        <time>1970-01-01T01:00:00Z</time>
      </trkpt>
      <trkpt lat="56.827354" lon="13.934287">
        <ele>135.636</ele>
        <time>1970-01-01T01:00:00Z</time>
      </trkpt>
      <trkpt lat="56.827438" lon="13.93421">
        <ele>135.818</ele>
        <time>1970-01-01T01:00:00Z</time>
      </trkpt>
      <trkpt lat="56.827516" lon="13.934167">
        <ele>135.909</ele>
        <time>1970-01-01T01:00:00Z</time>
      </trkpt>
      <trkpt lat="56.827587" lon="13.934082">
        <ele>136</ele>
        <time>1970-01-01T01:00:00Z</time>
      </trkpt>
      <trkpt lat="56.827663" lon="13.933987">
        <ele>136</ele>
        <time>1970-01-01T01:00:00Z</time>
      </trkpt>
      <trkpt lat="56.827746" lon="13.933898">
        <ele>136</ele>
        <time>1970-01-01T01:00:00Z</time>
      </trkpt>
      <trkpt lat="56.827812" lon="13.933811">
        <ele>136</ele>
        <time>1970-01-01T01:00:00Z</time>
      </trkpt>
      <trkpt lat="56.827897" lon="13.933731">
        <ele>136</ele>
        <time>1970-01-01T01:00:00Z</time>
      </trkpt>
      <trkpt lat="56.827973" lon="13.933643">
        <ele>136</ele>
        <time>1970-01-01T01:00:00Z</time>
      </trkpt>
      <trkpt lat="56.828055" lon="13.933574">
        <ele>136</ele>
        <time>1970-01-01T01:00:00Z</time>
      </trkpt>
      <trkpt lat="56.828132" lon="13.933487">
        <ele>136.091</ele>
        <time>1970-01-01T01:00:00Z</time>
      </trkpt>
      <trkpt lat="56.828206" lon="13.933388">
        <ele>136.182</ele>
        <time>1970-01-01T01:00:00Z</time>
      </trkpt>
      <trkpt lat="56.828283" lon="13.933291">
        <ele>136.273</ele>
        <time>1970-01-01T01:00:00Z</time>
      </trkpt>
      <trkpt lat="56.828357" lon="13.933225">
        <ele>136.364</ele>
        <time>1970-01-01T01:00:00Z</time>
      </trkpt>
      <trkpt lat="56.828433" lon="13.933121">
        <ele>136.364</ele>
        <time>1970-01-01T01:00:00Z</time>
      </trkpt>
      <trkpt lat="56.828498" lon="13.932991">
        <ele>136.364</ele>
        <time>1970-01-01T01:00:00Z</time>
      </trkpt>
      <trkpt lat="56.828566" lon="13.932901">
        <ele>136.364</ele>
        <time>1970-01-01T01:00:00Z</time>
      </trkpt>
      <trkpt lat="56.82865" lon="13.932856">
        <ele>136.364</ele>
        <time>1970-01-01T01:00:00Z</time>
      </trkpt>
      <trkpt lat="56.828736" lon="13.932795">
        <ele>136.364</ele>
        <time>1970-01-01T01:00:00Z</time>
      </trkpt>
      <trkpt lat="56.828827" lon="13.932737">
        <ele>136.364</ele>
        <time>1970-01-01T01:00:00Z</time>
      </trkpt>
      <trkpt lat="56.828901" lon="13.93267">
        <ele>136.364</ele>
        <time>1970-01-01T01:00:00Z</time>
      </trkpt>
      <trkpt lat="56.828976" lon="13.932612">
        <ele>136.273</ele>
        <time>1970-01-01T01:00:00Z</time>
      </trkpt>
      <trkpt lat="56.829054" lon="13.932546">
        <ele>136.182</ele>
        <time>1970-01-01T01:00:00Z</time>
      </trkpt>
      <trkpt lat="56.82913" lon="13.932467">
        <ele>136.091</ele>
        <time>1970-01-01T01:00:00Z</time>
      </trkpt>
      <trkpt lat="56.829207" lon="13.932399">
        <ele>136</ele>
        <time>1970-01-01T01:00:00Z</time>
      </trkpt>
      <trkpt lat="56.829283" lon="13.932341">
        <ele>136.182</ele>
        <time>1970-01-01T01:00:00Z</time>
      </trkpt>
      <trkpt lat="56.82936" lon="13.932273">
        <ele>136.364</ele>
        <time>1970-01-01T01:00:00Z</time>
      </trkpt>
      <trkpt lat="56.829443" lon="13.9322">
        <ele>136.545</ele>
        <time>1970-01-01T01:00:00Z</time>
      </trkpt>
      <trkpt lat="56.829511" lon="13.932116">
        <ele>136.727</ele>
        <time>1970-01-01T01:00:00Z</time>
      </trkpt>
      <trkpt lat="56.829588" lon="13.932037">
        <ele>136.909</ele>
        <time>1970-01-01T01:00:00Z</time>
      </trkpt>
      <trkpt lat="56.829662" lon="13.931954">
        <ele>137.091</ele>
        <time>1970-01-01T01:00:00Z</time>
      </trkpt>
      <trkpt lat="56.829738" lon="13.931891">
        <ele>137.273</ele>
        <time>1970-01-01T01:00:00Z</time>
      </trkpt>
      <trkpt lat="56.829813" lon="13.931802">
        <ele>137.455</ele>
        <time>1970-01-01T01:00:00Z</time>
      </trkpt>
      <trkpt lat="56.82989" lon="13.931739">
        <ele>137.636</ele>
        <time>1970-01-01T01:00:00Z</time>
      </trkpt>
      <trkpt lat="56.829971" lon="13.931669">
        <ele>137.818</ele>
        <time>1970-01-01T01:00:00Z</time>
      </trkpt>
      <trkpt lat="56.830041" lon="13.931564">
        <ele>137.909</ele>
        <time>1970-01-01T01:00:00Z</time>
      </trkpt>
      <trkpt lat="56.830116" lon="13.93148">
        <ele>137.727</ele>
        <time>1970-01-01T01:00:00Z</time>
      </trkpt>
      <trkpt lat="56.830189" lon="13.931414">
        <ele>137.545</ele>
        <time>1970-01-01T01:00:00Z</time>
      </trkpt>
      <trkpt lat="56.830284" lon="13.931386">
        <ele>137.364</ele>
        <time>1970-01-01T01:00:00Z</time>
      </trkpt>
      <trkpt lat="56.830382" lon="13.931346">
        <ele>137.182</ele>
        <time>1970-01-01T01:00:00Z</time>
      </trkpt>
      <trkpt lat="56.830478" lon="13.931305">
        <ele>137</ele>
        <time>1970-01-01T01:00:00Z</time>
      </trkpt>
      <trkpt lat="56.830558" lon="13.931231">
        <ele>136.818</ele>
        <time>1970-01-01T01:00:00Z</time>
      </trkpt>
      <trkpt lat="56.830634" lon="13.931169">
        <ele>136.636</ele>
        <time>1970-01-01T01:00:00Z</time>
      </trkpt>
      <trkpt lat="56.830704" lon="13.931058">
        <ele>136.455</ele>
        <time>1970-01-01T01:00:00Z</time>
      </trkpt>
      <trkpt lat="56.830779" lon="13.930965">
        <ele>136.273</ele>
        <time>1970-01-01T01:00:00Z</time>
      </trkpt>
      <trkpt lat="56.83085" lon="13.930868">
        <ele>136.091</ele>
        <time>1970-01-01T01:00:00Z</time>
      </trkpt>
      <trkpt lat="56.830918" lon="13.930973">
        <ele>136.273</ele>
        <time>1970-01-01T01:00:00Z</time>
      </trkpt>
      <trkpt lat="56.830991" lon="13.931081">
        <ele>136.545</ele>
        <time>1970-01-01T01:00:00Z</time>
      </trkpt>
      <trkpt lat="56.831071" lon="13.931025">
        <ele>136.818</ele>
        <time>1970-01-01T01:00:00Z</time>
      </trkpt>
      <trkpt lat="56.831144" lon="13.930909">
        <ele>137.091</ele>
        <time>1970-01-01T01:00:00Z</time>
      </trkpt>
      <trkpt lat="56.831213" lon="13.930797">
        <ele>137.364</ele>
        <time>1970-01-01T01:00:00Z</time>
      </trkpt>
      <trkpt lat="56.831273" lon="13.930688">
        <ele>137.636</ele>
        <time>1970-01-01T01:00:00Z</time>
      </trkpt>
      <trkpt lat="56.831354" lon="13.930783">
        <ele>137.909</ele>
        <time>1970-01-01T01:00:00Z</time>
      </trkpt>
      <trkpt lat="56.831425" lon="13.93087">
        <ele>138.182</ele>
        <time>1970-01-01T01:00:00Z</time>
      </trkpt>
      <trkpt lat="56.831507" lon="13.930864">
        <ele>138.455</ele>
        <time>1970-01-01T01:00:00Z</time>
      </trkpt>
      <trkpt lat="56.831596" lon="13.930812">
        <ele>138.727</ele>
        <time>1970-01-01T01:00:00Z</time>
      </trkpt>
      <trkpt lat="56.83168" lon="13.93087">
        <ele>139</ele>
        <time>1970-01-01T01:00:00Z</time>
      </trkpt>
      <trkpt lat="56.831745" lon="13.930989">
        <ele>139</ele>
        <time>1970-01-01T01:00:00Z</time>
      </trkpt>
      <trkpt lat="56.83182" lon="13.93109">
        <ele>139</ele>
        <time>1970-01-01T01:00:00Z</time>
      </trkpt>
      <trkpt lat="56.83189" lon="13.9312">
        <ele>139.364</ele>
        <time>1970-01-01T01:00:00Z</time>
      </trkpt>
      <trkpt lat="56.831981" lon="13.931219">
        <ele>139.727</ele>
        <time>1970-01-01T01:00:00Z</time>
      </trkpt>
      <trkpt lat="56.832035" lon="13.931085">
        <ele>140.091</ele>
        <time>1970-01-01T01:00:00Z</time>
      </trkpt>
      <trkpt lat="56.832059" lon="13.9309">
        <ele>140.455</ele>
        <time>1970-01-01T01:00:00Z</time>
      </trkpt>
      <trkpt lat="56.832096" lon="13.930758">
        <ele>140.818</ele>
        <time>1970-01-01T01:00:00Z</time>
      </trkpt>
      <trkpt lat="56.832159" lon="13.930629">
        <ele>141.182</ele>
        <time>1970-01-01T01:00:00Z</time>
      </trkpt>
      <trkpt lat="56.832222" lon="13.930528">
        <ele>141.545</ele>
        <time>1970-01-01T01:00:00Z</time>
      </trkpt>
      <trkpt lat="56.832296" lon="13.930433">
        <ele>141.909</ele>
        <time>1970-01-01T01:00:00Z</time>
      </trkpt>
      <trkpt lat="56.832362" lon="13.930327">
        <ele>142.273</ele>
        <time>1970-01-01T01:00:00Z</time>
      </trkpt>
      <trkpt lat="56.832426" lon="13.930223">
        <ele>142.636</ele>
        <time>1970-01-01T01:00:00Z</time>
      </trkpt>
      <trkpt lat="56.832483" lon="13.930098">
        <ele>142.909</ele>
        <time>1970-01-01T01:00:00Z</time>
      </trkpt>
      <trkpt lat="56.832535" lon="13.929969">
        <ele>142.818</ele>
        <time>1970-01-01T01:00:00Z</time>
      </trkpt>
      <trkpt lat="56.832602" lon="13.929874">
        <ele>142.727</ele>
        <time>1970-01-01T01:00:00Z</time>
      </trkpt>
      <trkpt lat="56.832655" lon="13.92974">
        <ele>142.636</ele>
        <time>1970-01-01T01:00:00Z</time>
      </trkpt>
      <trkpt lat="56.832704" lon="13.92962">
        <ele>142.636</ele>
        <time>1970-01-01T01:00:00Z</time>
      </trkpt>
      <trkpt lat="56.832758" lon="13.929508">
        <ele>142.636</ele>
        <time>1970-01-01T01:00:00Z</time>
      </trkpt>
      <trkpt lat="56.832826" lon="13.929427">
        <ele>142.636</ele>
        <time>1970-01-01T01:00:00Z</time>
      </trkpt>
      <trkpt lat="56.83289" lon="13.929326">
        <ele>142.545</ele>
        <time>1970-01-01T01:00:00Z</time>
      </trkpt>
      <trkpt lat="56.83296" lon="13.929229">
        <ele>142.455</ele>
        <time>1970-01-01T01:00:00Z</time>
      </trkpt>
      <trkpt lat="56.833012" lon="13.929112">
        <ele>142.364</ele>
        <time>1970-01-01T01:00:00Z</time>
      </trkpt>
      <trkpt lat="56.833082" lon="13.929001">
        <ele>142.273</ele>
        <time>1970-01-01T01:00:00Z</time>
      </trkpt>
      <trkpt lat="56.833135" lon="13.928885">
        <ele>142.273</ele>
        <time>1970-01-01T01:00:00Z</time>
      </trkpt>
      <trkpt lat="56.833187" lon="13.928762">
        <ele>142.273</ele>
        <time>1970-01-01T01:00:00Z</time>
      </trkpt>
      <trkpt lat="56.833246" lon="13.928655">
        <ele>142.273</ele>
        <time>1970-01-01T01:00:00Z</time>
      </trkpt>
      <trkpt lat="56.833305" lon="13.928522">
        <ele>142.455</ele>
        <time>1970-01-01T01:00:00Z</time>
      </trkpt>
      <trkpt lat="56.833373" lon="13.928407">
        <ele>142.545</ele>
        <time>1970-01-01T01:00:00Z</time>
      </trkpt>
      <trkpt lat="56.833439" lon="13.928294">
        <ele>142.636</ele>
        <time>1970-01-01T01:00:00Z</time>
      </trkpt>
      <trkpt lat="56.83351" lon="13.928189">
        <ele>143</ele>
        <time>1970-01-01T01:00:00Z</time>
      </trkpt>
      <trkpt lat="56.833565" lon="13.928061">
        <ele>143.364</ele>
        <time>1970-01-01T01:00:00Z</time>
      </trkpt>
      <trkpt lat="56.833626" lon="13.927927">
        <ele>143.727</ele>
        <time>1970-01-01T01:00:00Z</time>
      </trkpt>
      <trkpt lat="56.833696" lon="13.927816">
        <ele>144.091</ele>
        <time>1970-01-01T01:00:00Z</time>
      </trkpt>
      <trkpt lat="56.833764" lon="13.927717">
        <ele>144.455</ele>
        <time>1970-01-01T01:00:00Z</time>
      </trkpt>
      <trkpt lat="56.833816" lon="13.927843">
        <ele>144.818</ele>
        <time>1970-01-01T01:00:00Z</time>
      </trkpt>
      <trkpt lat="56.833864" lon="13.927984">
        <ele>145.182</ele>
        <time>1970-01-01T01:00:00Z</time>
      </trkpt>
      <trkpt lat="56.83391" lon="13.928129">
        <ele>145.545</ele>
        <time>1970-01-01T01:00:00Z</time>
      </trkpt>
      <trkpt lat="56.83396" lon="13.928266">
        <ele>145.727</ele>
        <time>1970-01-01T01:00:00Z</time>
      </trkpt>
      <trkpt lat="56.834039" lon="13.928356">
        <ele>145.909</ele>
        <time>1970-01-01T01:00:00Z</time>
      </trkpt>
      <trkpt lat="56.834075" lon="13.928489">
        <ele>146.091</ele>
        <time>1970-01-01T01:00:00Z</time>
      </trkpt>
      <trkpt lat="56.834138" lon="13.928595">
        <ele>146</ele>
        <time>1970-01-01T01:00:00Z</time>
      </trkpt>
      <trkpt lat="56.834222" lon="13.928696">
        <ele>146</ele>
        <time>1970-01-01T01:00:00Z</time>
      </trkpt>
      <trkpt lat="56.834295" lon="13.928797">
        <ele>146</ele>
        <time>1970-01-01T01:00:00Z</time>
      </trkpt>
      <trkpt lat="56.834359" lon="13.928922">
        <ele>146</ele>
        <time>1970-01-01T01:00:00Z</time>
      </trkpt>
      <trkpt lat="56.83442" lon="13.929048">
        <ele>146</ele>
        <time>1970-01-01T01:00:00Z</time>
      </trkpt>
      <trkpt lat="56.834481" lon="13.929171">
        <ele>146</ele>
        <time>1970-01-01T01:00:00Z</time>
      </trkpt>
      <trkpt lat="56.834525" lon="13.929309">
        <ele>146</ele>
        <time>1970-01-01T01:00:00Z</time>
      </trkpt>
    </trkseg>
  </trk>
</gpx>